FW9354 Weather Reports


time (UTC)temp
C
wind
direction
speed
KPH
gust
KPH
rain 1hr
cm
rain 24hr
cm
rain mn
cm
humidity
%
barometer
mb
20260503071542 8 0 0.0 1.6 0.03 0.15 0.00 88 1015.5
20260503054543 9 0 0.0 3.2 0.00 0.13 0.13 85 1016.2
20260503053039 9 259 0.0 4.8 0.00 0.13 0.13 84 1016.2
20260503051545 9 270 0.0 6.4 0.00 0.13 0.13 85 1016.1
20260503050045 9 0 0.0 3.2 0.00 0.13 0.13 86 1016.4
20260503044559 10 0 0.0 3.2 0.00 0.13 0.13 85 1016.4
20260503043045 10 242 0.0 4.8 0.00 0.13 0.13 85 1016.2
20260503041607 9 290 0.0 4.8 0.00 0.13 0.13 88 1016.1
20260503040052 9 0 0.0 0.0 0.00 0.13 0.13 90 1016.1
20260503034546 9 0 0.0 1.6 0.00 0.13 0.13 91 1016.1
20260503033052 10 0 0.0 4.8 0.03 0.13 0.13 90 1015.7
20260503031544 10 205 0.0 6.4 0.13 0.13 0.13 89 1015.3
20260503030050 10 192 0.0 1.6 0.13 0.13 0.13 89 1015.1
20260503024542 10 208 0.0 3.2 0.13 0.13 0.13 88 1015.1
20260503023051 11 208 0.0 3.2 0.10 0.10 0.10 80 1015.4
20260503021550 12 0 1.6 6.4 0.00 0.00 0.00 69 1015.5
20260503020051 13 142 0.0 1.6 0.00 0.00 0.00 66 1015.2
20260503014551 13 0 0.0 4.8 0.00 0.00 0.00 67 1015.2
20260503013042 13 0 0.0 1.6 0.00 0.00 0.00 64 1015.2
20260503011556 13 24 9.7 22.5 0.00 0.00 0.00 61 1015.4
20260503010046 14 111 3.2 11.3 0.00 0.00 0.00 63 1015.2
20260503004545 14 0 0.0 1.6 0.00 0.00 0.00 64 1014.8
20260503003044 15 0 1.6 4.8 0.00 0.00 0.00 54 1014.5
20260503001546 16 0 0.0 9.7 0.00 0.00 0.00 51 1013.7
20260503000040 16 293 0.0 8.0 0.00 0.00 0.00 50 1013.7
20260502234550 16 111 0.0 3.2 0.00 0.00 0.00 48 1013.6
20260502233048 17 222 1.6 4.8 0.00 0.00 0.00 45 1013.5
20260502231545 17 203 1.6 4.8 0.00 0.00 0.00 42 1013.7
20260502230045 18 225 1.6 9.7 0.00 0.00 0.00 40 1014.0
20260502224543 18 271 4.8 19.3 0.00 0.00 0.00 39 1014.2
20260502223044 17 266 1.6 9.7 0.00 0.00 0.00 37 1014.4
20260502221542 18 250 1.6 9.7 0.00 0.00 0.00 36 1014.4
20260502220124 19 253 1.6 12.9 0.00 0.00 0.00 37 1014.3
20260502214545 20 155 0.0 3.2 0.00 0.00 0.00 36 1014.7
20260502213045 20 0 0.0 3.2 0.00 0.00 0.00 36 1015.0
20260502211551 20 0 3.2 8.0 0.00 0.00 0.00 34 1014.7
20260502210100 20 249 1.6 8.0 0.00 0.00 0.00 34 1014.9
20260502204559 20 195 0.0 1.6 0.00 0.00 0.00 37 1015.2
20260502203100 19 346 0.0 12.9 0.00 0.00 0.00 37 1015.2
20260502201546 20 0 3.2 12.9 0.00 0.00 0.00 33 1015.2
20260502200045 20 176 8.0 20.9 0.00 0.00 0.00 29 1015.1
20260502194549 20 60 1.6 9.7 0.00 0.00 0.00 30 1015.1
20260502193041 20 152 3.2 8.0 0.00 0.00 0.00 32 1015.4
20260502191551 20 142 6.4 16.1 0.00 0.00 0.00 31 1015.9
20260502190056 20 81 3.2 11.3 0.00 0.00 0.00 30 1016.2
20260502184545 20 158 4.8 14.5 0.00 0.00 0.00 29 1016.2
20260502183053 20 149 1.6 12.9 0.00 0.00 0.00 31 1016.2
20260502181544 20 233 1.6 11.3 0.00 0.00 0.00 35 1016.3
20260502163106 15 120 0.0 6.4 0.00 0.00 0.00 53 1016.4
20260502161551 15 150 1.6 4.8 0.00 0.00 0.00 57 1016.4
20260502151543 11 0 0.0 1.6 0.00 0.00 0.00 65 1016.4
20260502123101 6 0 0.0 1.6 0.00 0.00 0.00 78 1015.4
20260502121551 6 0 0.0 1.6 0.00 0.00 0.00 76 1015.4
20260502114549 6 206 0.0 3.2 0.00 0.00 0.00 74 1015.4
20260502113048 6 0 0.0 0.0 0.00 0.00 0.00 73 1015.5
20260502111548 7 0 0.0 0.0 0.00 0.00 0.00 72 1015.6
20260502110044 7 0 0.0 3.2 0.00 0.00 0.00 71 1015.5
20260502104551 7 250 0.0 4.8 0.00 0.00 0.00 70 1015.5
20260502103048 7 0 0.0 1.6 0.00 0.00 0.00 71 1015.6
20260502101546 7 0 0.0 4.8 0.00 0.00 0.00 70 1015.5